This demonstration page uses our WeatherBlox Daily Observations layout. Learn more.

Left ArrowRight Arrow

36.19886, -115.1175

Hourly Observations for January 26, 2021

Temp ( °F °C ) Dew Point ( °F °C ) Humidity (%) Winds ( mph kmh ) Pressure ( in mb ) Visibility ( mi km ) Precip ( " mm )
12:53 am 00:53 Cloudy with Light Rain 37 2.8 31 -0.6 79 79 S 10 17 29.63 1003 9 14.48406 0.001 0.001
1:53 am 01:53 Cloudy with Light Rain 36 2.2 32 0 86 86 Calm 29.65 1004 8 12.87472 0.02 0.508
2:00 am 02:00 Cloudy with Light Rain 36 2.2 32 0 86 86 ENE 3 6 29.66 1004 9 14.48406 0.001 0.001
2:08 am 02:08 Cloudy with Light Snow 36 2.2 31 -0.6 82 82 NE 6 9 29.66 1004 7 11.26538 0.001 0.001
2:53 am 02:53 Cloudy with Light Snow 36 2.2 32 0 86 86 E 5 7 29.67 1005 6 9.65604 0.02 0.508
3:44 am 03:44 Cloudy with Light Snow 35 1.7 32 0 89 89 Calm 29.7 1006 2.5 4.02335 0.02 0.508
3:51 am 03:51 Cloudy with Light Snow 36 2 30 -1 81 81 Calm 29.69 1006 3 4.82802 0.02 0.508
3:53 am 03:53 Cloudy with Light Snow 35 1.7 31 -0.6 85 85 Calm 29.7 1006 3 4.82802 0.02 0.508
4:12 am 04:12 Cloudy with Light Snow 35 1.7 31 -0.6 85 85 NNE 3 6 29.71 1006 4 6.43736 0.01 0.254
4:28 am 04:28 Cloudy with Light Rain 35 1.7 31 -0.6 85 85 NE 3 6 29.71 1006 5 8.0467 0.02 0.508
4:53 am 04:53 Cloudy with Light Snow 35 1.7 32 0 89 89 NE 5 7 29.72 1007 6 9.65604 0.02 0.508
5:11 am 05:11 Cloudy with Light Rain 35 1.7 31 -0.6 85 85 NE 5 7 29.74 1007 7 11.26538 0.01 0.254
5:20 am 05:20 Cloudy with Light Rain 35 1.7 32 0 89 89 NE 5 7 29.75 1007 7 11.26538 0.01 0.254
5:41 am 05:41 Cloudy with Light Snow 35 1.7 32 0 89 89 NNE 5 7 29.76 1008 5 8.0467 0.01 0.254
5:48 am 05:48 Cloudy with Light Snow 36 2 32 0 87 87 NNE 3 6 29.76 1008 5 8.0467 0.02 0.508
5:53 am 05:53 Cloudy with Light Snow 35 1.7 32 0 89 89 NE 3 6 29.76 1008 5 8.0467 0.02 0.508
6:01 am 06:01 Cloudy with Light Snow 35 1.7 32 0 89 89 NNE 3 6 29.78 1008 5 8.0467 0.001 0.001
6:19 am 06:19 Cloudy with Light Snow 36 2.2 32 0 86 86 Calm 29.78 1009 6 9.65604 0.001 0.001
6:53 am 06:53 Cloudy 36 2.2 32 0 86 86 Calm 29.81 1010 9 14.48406 0.01 0.254
7:20 am 07:20 Cloudy 36 2.2 33 0.6 89 89 Calm 29.83 1010 10 16.0934 0 0
7:53 am 07:53 Cloudy 37 2.8 32 0 82 82 Calm 29.85 1011 10 16.0934 0 0
8:05 am 08:05 Cloudy 37 2.8 32 0 82 82 Calm 29.86 1011 10 16.0934 0 0
8:42 am 08:42 Cloudy 38 3.3 32 0 79 79 ENE 3 6 29.88 1012 10 16.0934 0 0
8:53 am 08:53 Cloudy 38 3.3 32 0 79 79 E 3 6 29.9 1013 10 16.0934 0 0
9:06 am 09:06 Cloudy 38 3.3 33 0.6 83 83 Calm 29.9 1013 10 16.0934 0 0
9:53 am 09:53 Cloudy 40 4.4 33 0.6 77 77 SW 3 6 29.94 1014 10 16.0934 0 0
10:00 am 10:00 Cloudy 40 4.4 33 0.6 77 77 WSW 3 6 29.92 1013 10 16.0934 0 0
10:17 am 10:17 Cloudy 40 4.4 32 0 73 73 Calm 29.93 1014 10 16.0934 0 0
10:34 am 10:34 Cloudy 40 4.4 31 -0.6 70 70 Calm 29.93 1014 10 16.0934 0 0
10:50 am 10:50 Cloudy 41 5 32 0 70 70 Calm 29.94 1014 10 16.0934 0 0
10:53 am 10:53 Cloudy 41 5 32 0 70 70 Calm 29.96 1015 10 16.0934 0 0
11:40 am 11:40 Cloudy 41 5 31 -0.6 67 67 E 3 6 29.94 1014 10 16.0934 0 0
11:53 am 11:53 Cloudy 41 5 31 -0.6 67 67 Calm 29.96 1015 10 16.0934 0 0
12:53 pm 12:53 Cloudy 42 5.6 31 -0.6 65 65 SE 7 11 29.97 1015 10 16.0934 0 0
1:53 pm 13:53 Cloudy 42 5.6 31 -0.6 65 65 ESE 8 13 29.99 1016 10 16.0934 0 0
2:53 pm 14:53 Cloudy 42 5.6 31 -0.6 65 65 E 8 13 30.01 1016 10 16.0934 0 0
3:53 pm 15:53 Cloudy 43 6.1 30 -1.1 60 60 E 8 13 30.04 1017 10 16.0934 0 0
4:53 pm 16:53 Cloudy 43 6.1 31 -0.6 63 63 E 6 9 30.06 1018 10 16.0934 0 0
5:53 pm 17:53 Partly Cloudy 41 5 31 -0.6 67 67 E 6 9 30.08 1019 10 16.0934 0 0
6:53 pm 18:53 Cloudy 42 5.6 31 -0.6 65 65 NE 5 7 30.1 1019 10 16.0934 0 0
7:53 pm 19:53 Cloudy 41 5 31 -0.6 67 67 E 3 6 30.11 1020 10 16.0934 0 0
8:53 pm 20:53 Clear 40 4.4 30 -1.1 68 68 ESE 6 9 30.13 1020 10 16.0934 0 0
9:53 pm 21:53 Clear 38 3.3 29 -1.7 70 70 E 6 9 30.15 1021 10 16.0934 0 0
10:53 pm 22:53 Clear 37 2.8 29 -1.7 73 73 E 5 7 30.16 1022 10 16.0934 0 0
11:53 pm 23:53 Mostly Clear 38 3.3 31 -0.6 76 76 ENE 8 13 30.16 1022 10 16.0934 0 0

Powered by AerisWeather